Preview of NWS' New Version of Forecast
This preview is not operational and should not be used for support decisions.

Regional Weather Roundup (RWR)

Issued by National Weather Service (NWS)

                            
000
ASUS45 KABQ 211410
RWRNM 
NEW MEXICO REGIONAL WEATHER ROUNDUP
NATIONAL WEATHER SERVICE ALBUQUERQUE NM
800 AM MDT SAT SEP 21 2019

NOTE: "FAIR" MEANS FEW OR NO CLOUDS BELOW 12,000 FEET AGL WITH NO
       SIGNIFICANT WEATHER OR OBSTRUCTIONS TO VISION.

      THIS PRODUCT IS RELEASED AS TWO VERSIONS.  ONE VERSION NEAR
      THE TOP OF THE HOUR CONTAINING PRELIMINARY DATA FROM ALBUQUERQUE
      AND OTHER STATIONS.  A FINAL VERSION WITH ADDITIONAL DATA IS 
      ISSUED ABOUT 10 MINUTES AFTER THE HOUR.
 
NMZ501-503-504-510>518-211500-
NORTHWEST PLATEAU/NORTHCENTRAL MOUNTAINS
  
CITY           SKY/WX    TMP DP  RH WIND       PRES   REMARKS
FARMINGTON     FAIR      48  31  51 E7        30.12R                  
LOS ALAMOS     FAIR      59  28  31 CALM      30.23R                  
SANTA FE       FAIR      52  36  54 N5        30.18R                  
TAOS           FAIR      53  28  38 E5        30.23R                  
ANGEL FIRE     FAIR      49  28  45 S5        30.28                   

$$
NMZ402-403-502-505>509-211500-
WESTCENTRAL MOUNTAINS/SOUTHWEST MOUNTAINS
  
CITY           SKY/WX    TMP DP  RH WIND       PRES   REMARKS
GALLUP         FAIR      45  28  51 CALM      30.18R                  
GRANTS         FAIR      44  38  79 CALM      30.23R                  
SILVER CITY    FAIR      62  41  46 NW9       30.13R                  

$$
NMZ407-409-411-412-211500-
SOUTHERN DESERTS
  
CITY           SKY/WX    TMP DP  RH WIND       PRES   REMARKS
DEMING         PTSUNNY   62  48  60 W7        30.06R                  
LAS CRUCES     PTSUNNY   68  49  50 S6G16     30.08R                  
HOLLOMAN AFB   PTSUNNY   67  51  56 W7        30.05R                  
ALAMOGORDO     PTSUNNY   68  55  64 SE3       30.04R                  
T OR C         FAIR      65  43  44 N8        30.07R                  

$$
NMZ519>523-211500-
CENTRAL VALLEYS/CENTRAL HIGHLANDS
  
CITY           SKY/WX    TMP DP  RH WIND       PRES   REMARKS
ALBUQUERQUE    FAIR      60  33  36 SE6       30.14R                  
MORIARTY ARPT  FAIR      51  41  68 CALM      30.20R                  
CLINES CORNERS FAIR      58  30  34 W8        30.22R                  
BELEN          FAIR      58  32  37 CALM      30.13S                  
SOCORRO        FAIR      62  37  38 N6        30.10R                  

$$
NMZ524>526-539-540-211500-
SOUTHCENTRAL MOUNTAINS
  
CITY           SKY/WX    TMP DP  RH WIND       PRES   REMARKS
RUIDOSO        FAIR      57  46  67 W3        30.22R                  

$$
NMZ527>531-211500-
NORTHEAST HIGHLANDS/NORTHEAST PLAINS
  
CITY           SKY/WX    TMP DP  RH WIND       PRES   REMARKS
LAS VEGAS      FAIR      60  33  36 CALM      30.17S                  
RATON          FAIR      49  41  74 NE5       30.12R                  
CLAYTON        FAIR      63  61  93 SW9       30.06R                  

$$
NMZ532>537-211500-
EASTCENTRAL PLAINS
  
CITY           SKY/WX    TMP DP  RH WIND       PRES   REMARKS
TUCUMCARI      FAIR      68  63  84 S10       30.02R                  
CANNON AFB     CLOUDY    66  66 100 CALM      30.09R FOG              
CLOVIS AIRPORT CLOUDY    65  65 100 S7        30.09R FOG              

$$
NMZ028-029-033-538-211500-
SOUTHEAST PLAINS
  
CITY           SKY/WX    TMP DP  RH WIND       PRES   REMARKS
ROSWELL        FAIR      71  62  73 CALM      30.02R                  
ARTESIA        FAIR      72  68  88 CALM      30.02S                  
CARLSBAD       FAIR      73  63  70 SE6       29.99R                  
HOBBS          PTSUNNY   70  64  83 SE13      30.05R                  


$$